This is the latest recevied weather packets stored in our database for station/object KB2FWP. If no packets are shown the sender has not sent any weather packets the latest 10 day(s).
| Time | Temp. | Humidity | Pressure | Rain* | Wind** | Luminosity | Snow |
|---|---|---|---|---|---|---|---|
| 1787571925 | 20.56° C | 86% | 1015.3 hPa | 0 mm | - | - | - |
| 1787571025 | 20° C | 87% | 1015.1 hPa | 0 mm | - | - | - |
| 1787570124 | 19.44° C | 87% | 1015.2 hPa | 0 mm | - | - | - |
| 1787569226 | 18.89° C | 87% | 1015.1 hPa | 0 mm | - | - | - |
| 1787568345 | 18.33° C | 87% | 1015.1 hPa | 0 mm | - | - | - |
| 1787567424 | 18.33° C | 86% | 1015 hPa | 0 mm | - | - | - |
| 1787566520 | 18.33° C | 86% | 1014.8 hPa | 0 mm | - | - | - |
| 1787565624 | 18.33° C | 86% | 1014.6 hPa | 0 mm | - | - | - |
| 1787564715 | 18.33° C | 86% | 1014.4 hPa | 0 mm | - | - | - |
| 1787563817 | 18.33° C | 85% | 1014.3 hPa | 0 mm | - | - | - |
| 1787562911 | 18.89° C | 84% | 1014.2 hPa | 0 mm | - | - | - |
| 1787562010 | 19.44° C | 84% | 1014.1 hPa | 0 mm | - | - | - |
| 1787561116 | 19.44° C | 84% | 1014.3 hPa | 0 mm | - | - | - |
| 1787560216 | 20° C | 83% | 1014.2 hPa | 0 mm | - | - | - |
| 1787559304 | 20° C | 84% | 1014.1 hPa | 0 mm | - | - | - |
| 1787558403 | 20° C | 84% | 1014.2 hPa | 0 mm | - | - | - |
| 1787557501 | 20.56° C | 84% | 1014.1 hPa | 0 mm | - | - | - |
| 1787556670 | 20.56° C | 84% | 1014.1 hPa | 0 mm | - | - | - |
| 1787555763 | 20.56° C | 83% | 1014.2 hPa | 0 mm | - | - | - |
| 1787554856 | 20.56° C | 83% | 1014.1 hPa | 0 mm | - | - | - |
| 1787553954 | 21.11° C | 83% | 1014 hPa | 0 mm | - | - | - |
| 1787553056 | 21.11° C | 83% | 1013.9 hPa | 0 mm | - | - | - |
| 1787552152 | 21.11° C | 83% | 1013.7 hPa | 0 mm | - | - | - |
| 1787551259 | 21.67° C | 82% | 1013.8 hPa | 0 mm | - | - | - |
| 1787550347 | 21.67° C | 82% | 1013.8 hPa | 0 mm | - | - | - |
* Rain latest hour (hover to see other rain measurements)
** Current wind speed in m/s (hover to see current wind gust speed)